Regional Weather Roundup
Issued by NWS Mt. Holly, NJ

Home | Current Version | Previous Version | Text Only | Print | Product List | Glossary On
Versions: 1 2 3 4 5 6 7 8 9 10 11 12 13 14 15 16 17 18 19 20 21 22 23 24 25 26 27 28 29 30 31 32 33 34 35 36 37 38 39 40 41 42 43 44 45 46 47 48 49 50
000
ASUS41 KPHI 291912
RWRPHI

REGIONAL WEATHER ROUNDUP
NATIONAL WEATHER SERVICE MOUNT HOLLY NJ
300 PM EDT WED JUL 29 2015

NOTE:  "FAIR" INDICATES FEW OR NO CLOUDS BELOW 12,000 FEET WITH NO
SIGNIFICANT WEATHER AND/OR OBSTRUCTIONS TO VISIBILITY.

 * = STATION DOES NOT REPORT PRECIPITATION (E.G. RAIN, SNOW, ETC.)
        OR FOG.

NJZ015>026-292000-
SOUTHERN NEW JERSEY

CITY           SKY/WX    TMP DP  RH WIND       PRES   REMARKS
POMONA         MOSUNNY   88  74  63 S10       29.98F HX  96
RIO GRANDE*    PTSUNNY   88  73  62 S12G20    30.00S HX  96
MILLVILLE      PTSUNNY   84  72  67 SW14G20   30.00R
WRIGHTSTOWN    MOSUNNY   92  69  46 SW8       29.94F HX  98
MOUNT HOLLY    MOSUNNY   92  69  47 VRB5      29.96F HX  97
TRENTON        PTSUNNY   90  67  46 SW7       29.96F HX  93

$$
NJZ001>014-292000-
NORTHERN NEW JERSEY

CITY           SKY/WX    TMP DP  RH WIND       PRES   REMARKS
SUSSEX         SUNNY     90  62  39 VRB3      29.97F HX  90
ANDOVER*         N/A     89  65  44 SW7       29.98F HX  91
MORRISTOWN     PTSUNNY   95  61  31 W9        29.95F HX  95
NEWARK         PTSUNNY   94  61  33 S12       29.94F HX  94
TETERBORO      PTSUNNY   94  61  33 S15       29.93F HX  94
CALDWELL       MOSUNNY   93  62  35 VRB6      29.95F HX  93
SOMERVILLE     MOSUNNY   94  61  33 NW6       29.93F HX  94
ALLAIRE*       MOSUNNY   90  70  51 S12G17    29.97F HX  95
TOMS RIVER*      N/A     90  70  51 SW6       29.97S HX  95

$$
PAZ043-044-047-054-055-060>062-066>071-292000-
EASTERN PENNSYLVANIA

CITY           SKY/WX    TMP DP  RH WIND       PRES   REMARKS
PHILADELPHIA   PTSUNNY   92  69  47 SW9       29.97F HX  97
NORTH PHILA    MOSUNNY   93  63  36 S7G17     29.98F HX  94
BLUE BELL      MOSUNNY   91  70  49 SW7       29.97F HX  97
DOYLESTOWN     PTSUNNY   89  69  51 NW7       29.97F HX  93
QUAKERTOWN*    MOSUNNY   91  66  43 SW9       30.00S HX  94
POTTSTOWN      SUNNY     89  69  51 SW7       29.99F HX  93
LANCASTER      MOSUNNY   89  70  53 S7        29.98F HX  94
COATESVILLE    MOSUNNY   86  73  66 SE3       30.01F HX  93
READING        MOSUNNY   91  66  43 MISG      29.96F HX  93
ALLENTOWN      PTSUNNY   91  68  46 SW8       29.97F HX  95
MOUNT POCONO     N/A    N/A N/A N/A MISG      30.05
HAZLETON       MOSUNNY   86  59  39 S3        30.06F
WILKES BARRE   SUNNY     90  63  40 S5        29.98F HX  91

$$
DEZALL-MDZ008-012-015-019-020-292000-
DELAWARE AND EASTERN MARYLAND

CITY           SKY/WX    TMP DP  RH WIND       PRES   REMARKS
WILMINGTON     MOSUNNY   87  74  64 S9        29.98F HX  95
DOVER          PTSUNNY   79  79 100 E6        29.97F
GEORGETOWN     PTSUNNY   87  72  60 SW8       30.00S HX  93
ABERDEEN       PTSUNNY   86  72  62 W12       29.98F HX  92
PATUXENT       PTSUNNY   83  73  72 SW9       29.99F
OCEAN CITY     PTSUNNY   85  74  69 S8        30.00F HX  92
WALLOPS ISLAND PTSUNNY   84  76  76 S12       30.01F HX  93
CAMBRIDGE      MOSUNNY   88  70  55 SW6       29.99S HX  92
SALISBURY      PTSUNNY   87  74  64 SW10      29.99F HX  95

$$
PAZ001-021-NYZ056-072-MDZ011-DCZ001-292000-
OTHER NEARBY LOCATIONS

CITY           SKY/WX    TMP DP  RH WIND       PRES   REMARKS
HARRISBURG     PTSUNNY   91  72  53 VRB5      29.96F HX  98
STATE COLLEGE  MOSUNNY   84  68  58 SW9       30.01F
WILLIAMSPORT   MOSUNNY   89  65  44 VRB3      29.96F HX  91
BINGHAMTON     SUNNY     84  64  50 S5        30.02F
NEW YORK CITY  SUNNY     94  63  35 W8        29.97F HX  95
BALTIMORE      PTSUNNY   81  76  84 E7        29.98F
WASHINGTON DC  PTSUNNY   90  74  59 S10       29.97F HX  99

$$



USA.gov is the U.S. government's official web portal to all federal, state and local government web resources and services.